Location: Newark
(3.0500°N, 36.0167°E)
Time: 18:11:06
(UTC+00:00)

A-11 Canister half - Pass Details

Date: 29 August 2019
Orbit: 1527 x 1682 km, 47.3° (Epoch: 22 September)

Event Time Altitude Azimuth Distance (km) Brightness Sun altitude
Rises 03:52:12 0° 208° (SSW) 4,685 11.2 4.2°
Reaches altitude 10° 03:55:21 10° 202° (SSW) 3,713 10.7 5.0°
Maximum altitude 04:04:21 50° 129° (SE) 1,915 10.1 7.2°
Drops below altitude 10° 04:13:33 10° 56° (ENE) 3,811 12.5 9.5°
Sets 04:16:49 0° 51° (NE) 4,817 12.8 10.3°
